Rexburg, ID

5:01 AM MDT on August 17, 2017 (GMT -0600)
Rexburg-Madison County

Weather History for KRXE - April, 2012

Change the Weather History Date:

Saturday, April 28, 2012

  Actual Average Record
Temperature  
Mean Temperature 40 °F 47 °F  
Max Temperature 49 °F 60 °F 77 °F (2007)
Min Temperature 30 °F 34 °F 28 °F (2014)
Degree Days  
Heating Degree Days 25 18  
Month to date heating degree days 415 602  
Since 1 July heating degree days 6637 7531  
Cooling Degree Days 0 0  
Month to date cooling degree days 0 0  
Year to date cooling degree days 0 0  
Moisture  
Dew Point 20 °F    
Average Humidity 52    
Maximum Humidity 78    
Minimum Humidity 26    
Precipitation  
Precipitation 0.00 in 0.06 in 0.30 in (1990)
Month to date precipitation 0.63 1.38  
Year to date precipitation 3.52 4.01  
Sea Level Pressure  
Sea Level Pressure 30.11 in    
Wind  
Wind Speed 5 mph (South)    
Max Wind Speed 12 mph    
Max Gust Speed 17 mph    
Visibility 10 miles    
Events      
T = Trace of Precipitation, MM = Missing Value Source: NWS Daily Summary

Daily Weather History Graph

Daily Weather History Graph

Search for Another Location

Airport or City:

Trip Planner

Search our weather history database for the weather conditions in past years. The results will help you decide how hot, cold, wet, or windy it might be!

Date:

Astronomy

Apr. 28, 2012 Rise Set
Actual Time 6:22 AM MDT 8:27 PM MDT
Civil Twilight 5:51 AM MDT 8:58 PM MDT
Nautical Twilight 5:13 AM MDT 9:37 PM MDT
Astronomical Twilight 4:30 AM MDT 10:19 PM MDT
Moon 12:05 PM MDT (4/28) 1:55 AM MDT (4/28)
Length of Visible Light 15h 07m
Length of Day
14h 04m
Waxing Crescent, 43% of the Moon is Illuminated
Apr 28
Waxing Crescent
Apr 29
First Quarter
May 5
Full
May 12
Last Quarter
May 20
New

Hourly Weather History & Observations

Time (MDT) Temp. Windchill Dew Point Humidity Pressure Visibility Wind Dir Wind Speed Gust Speed Precip Events Conditions
1:53 AM 33.1 °F 26.1 °F 26.1 °F 75% 30.14 in 10.0 mi South 8.1 mph - N/A   Clear
2:53 AM 33.1 °F 26.9 °F 27.0 °F 78% 30.13 in 10.0 mi South 6.9 mph - N/A   Clear
3:53 AM 33.1 °F 27.7 °F 26.1 °F 75% 30.14 in 10.0 mi South 5.8 mph - N/A   Clear
5:53 AM 30.9 °F 23.5 °F 25.0 °F 79% 30.16 in 10.0 mi South 8.1 mph - N/A   Clear
6:53 AM 30.0 °F 24.1 °F 24.1 °F 79% 30.17 in 10.0 mi South 5.8 mph - N/A   Clear
7:53 AM 33.1 °F 25.5 °F 26.1 °F 75% 30.18 in 10.0 mi South 9.2 mph - N/A   Clear
8:53 AM 36.0 °F 29.6 °F 26.1 °F 67% 30.17 in 10.0 mi SSW 8.1 mph - N/A   Clear
9:53 AM 39.0 °F 34.8 °F 21.9 °F 50% 30.16 in 10.0 mi Variable 5.8 mph - N/A   Clear
10:53 AM 41.0 °F - 19.0 °F 41% 30.14 in 10.0 mi Calm Calm - N/A   Unknown
11:53 AM 44.1 °F 40.8 °F 17.1 °F 34% 30.14 in 10.0 mi Variable 5.8 mph - N/A   Clear
12:53 PM 44.1 °F 40.8 °F 16.0 °F 32% 30.14 in 10.0 mi Variable 5.8 mph - N/A   Clear
1:53 PM 46.9 °F - 18.0 °F 32% 30.12 in 10.0 mi Variable 3.5 mph - N/A   Overcast
2:53 PM 46.9 °F - 16.0 °F 29% 30.11 in 10.0 mi WNW 6.9 mph - N/A   Scattered Clouds
3:53 PM 48.0 °F - 16.0 °F 28% 30.09 in 10.0 mi Variable 3.5 mph - N/A   Scattered Clouds
4:53 PM 46.9 °F - 15.1 °F 28% 30.08 in 10.0 mi WNW 5.8 mph - N/A   Mostly Cloudy
5:53 PM 48.0 °F - 16.0 °F 28% 30.09 in 10.0 mi Calm Calm - N/A   Overcast
6:53 PM 46.9 °F - 15.1 °F 28% 30.08 in 10.0 mi NE 4.6 mph - N/A   Mostly Cloudy
7:53 PM 46.9 °F - 16.0 °F 29% 30.06 in 10.0 mi Calm Calm - N/A   Partly Cloudy
8:53 PM 45.0 °F 43.5 °F 18.0 °F 34% 30.06 in 10.0 mi SSE 3.5 mph - N/A   Mostly Cloudy
9:53 PM 44.1 °F 40.1 °F 21.9 °F 42% 30.06 in 10.0 mi SSE 6.9 mph - N/A   Clear
10:53 PM 43.0 °F 39.5 °F 23.0 °F 45% 30.06 in 10.0 mi SE 5.8 mph - N/A   Overcast
11:53 PM 44.1 °F 41.5 °F 21.0 °F 40% 30.02 in 10.0 mi SE 4.6 mph - N/A   Overcast